When you browse on this site, cookies collect data to enhance your experience and personalize the content and advertising you see.
Visit our Privacy Policy to learn more. By continuing to use the site, you agree to this use of cookies and data.

Hourly Weather Richmond

Today, 11 August, Tuesday

Time Temperature Precipitation Wind Pressure Humidity
00:00 +25°C° 0 mm 1 mps 758 mmHg 88%
01:00 +25°C° 0 mm 1 mps 758 mmHg 90%
02:00 +25°C° 0 mm 1 mps 757 mmHg 90%
03:00 +25°C° 0 mm 1 mps 757 mmHg 91%
04:00 +24°C° 0 mm 1 mps 757 mmHg 91%
05:00 +25°C° 0 mm 1 mps 757 mmHg 90%
06:00 +25°C° 0 mm 1 mps 757 mmHg 89%
07:00 +26°C° 0 mm 1 mps 757 mmHg 87%
08:00 +28°C° 0 mm 1 mps 757 mmHg 77%
09:00 +30°C° 0 mm 1 mps 757 mmHg 67%
10:00 +33°C° 0 mm 1 mps 758 mmHg 57%
11:00 +34°C° 0 mm 1 mps 757 mmHg 52%
12:00 +35°C° 0 mm 1 mps 757 mmHg 46%
13:00 +37°C° 0 mm 2 mps 757 mmHg 41%
14:00 +37°C° 0 mm 2 mps 756 mmHg 42%
15:00 +37°C° 0 mm 2 mps 756 mmHg 44%
16:00 +36°C° 0 mm 2 mps 756 mmHg 46%
17:00 +35°C° 0.1 mm 2 mps 756 mmHg 53%
18:00 +32°C° 0.1 mm 2 mps 756 mmHg 61%
19:00 +30°C° 0.1 mm 2 mps 756 mmHg 69%
20:00 +29°C° 0 mm 2 mps 756 mmHg 72%
21:00 +28°C° 0 mm 2 mps 757 mmHg 76%
22:00 +27°C° 0 mm 2 mps 757 mmHg 79%
23:00 +27°C° 0 mm 2 mps 757 mmHg 81%

Tomorrow, 12 August, Wednesday

Time Temperature Precipitation Wind Pressure Humidity
00:00 +26°C° 0 mm 2 mps 757 mmHg 84%
01:00 +26°C° 0 mm 1 mps 757 mmHg 86%
02:00 +26°C° 0 mm 1 mps 757 mmHg 87%
03:00 +25°C° 0 mm 1 mps 757 mmHg 89%
04:00 +25°C° 0 mm 1 mps 757 mmHg 90%
05:00 +26°C° 0.2 mm 1 mps 758 mmHg 89%
06:00 +26°C° 0.2 mm 2 mps 758 mmHg 89%
07:00 +26°C° 0.2 mm 2 mps 759 mmHg 88%
08:00 +28°C° 0 mm 1 mps 758 mmHg 79%
09:00 +30°C° 0 mm 1 mps 758 mmHg 71%
10:00 +33°C° 0 mm 1 mps 758 mmHg 63%
11:00 +34°C° 0.1 mm 1 mps 758 mmHg 57%
12:00 +35°C° 0.1 mm 1 mps 758 mmHg 51%
13:00 +37°C° 0.1 mm 1 mps 758 mmHg 44%
14:00 +36°C° 0.2 mm 1 mps 758 mmHg 48%
15:00 +36°C° 0.2 mm 2 mps 757 mmHg 52%
16:00 +35°C° 0.2 mm 2 mps 757 mmHg 55%
17:00 +34°C° 0.6 mm 2 mps 757 mmHg 62%
18:00 +31°C° 0.6 mm 2 mps 758 mmHg 69%
19:00 +30°C° 0.6 mm 2 mps 758 mmHg 76%
20:00 +29°C° 0.8 mm 2 mps 758 mmHg 80%
21:00 +28°C° 0.8 mm 2 mps 758 mmHg 83%
22:00 +27°C° 0.8 mm 2 mps 759 mmHg 87%
23:00 +27°C° 0.2 mm 2 mps 759 mmHg 88%

Day after tomorrow, 13 August, Thursday

Time Temperature Precipitation Wind Pressure Humidity
00:00 +27°C° 0.2 mm 1 mps 759 mmHg 89%
01:00 +26°C° 0.2 mm 1 mps 759 mmHg 90%
02:00 +26°C° 0.4 mm 1 mps 759 mmHg 91%
03:00 +26°C° 0.4 mm 1 mps 759 mmHg 92%
04:00 +25°C° 0.4 mm 1 mps 759 mmHg 93%
05:00 +26°C° 0 mm 1 mps 759 mmHg 92%
06:00 +26°C° 0 mm 1 mps 759 mmHg 91%
07:00 +26°C° 0 mm 1 mps 760 mmHg 90%
08:00 +28°C° 0 mm 1 mps 760 mmHg 81%
09:00 +30°C° 0 mm 1 mps 760 mmHg 73%
10:00 +32°C° 0 mm 2 mps 760 mmHg 64%
11:00 +32°C° 1.4 mm 2 mps 759 mmHg 67%
12:00 +31°C° 1.4 mm 2 mps 759 mmHg 71%
13:00 +31°C° 1.4 mm 3 mps 759 mmHg 74%
14:00 +31°C° 2 mm 2 mps 758 mmHg 75%
15:00 +31°C° 2 mm 2 mps 758 mmHg 76%
16:00 +31°C° 2 mm 2 mps 758 mmHg 77%
17:00 +30°C° 2 mm 2 mps 758 mmHg 80%
18:00 +29°C° 2 mm 2 mps 758 mmHg 82%
19:00 +28°C° 2 mm 2 mps 758 mmHg 84%
20:00 +27°C° 0.1 mm 2 mps 758 mmHg 85%
21:00 +27°C° 0.1 mm 1 mps 758 mmHg 87%
22:00 +26°C° 0.1 mm 1 mps 758 mmHg 88%
23:00 +26°C° 1 mm 1 mps 758 mmHg 90%

14 August, Friday

Time Temperature Precipitation Wind Pressure Humidity
00:00 +26°C° 1 mm 1 mps 758 mmHg 92%
01:00 +25°C° 1 mm 1 mps 757 mmHg 94%
02:00 +25°C° 1.1 mm 1 mps 757 mmHg 94%
03:00 +25°C° 1.1 mm 1 mps 757 mmHg 95%
04:00 +23°C° 1.1 mm 0 mps 757 mmHg 95%
05:00 +23°C° 0.1 mm 0 mps 757 mmHg 95%
06:00 +23°C° 0.1 mm 0 mps 757 mmHg 94%
07:00 +24°C° 0.1 mm 0 mps 758 mmHg 94%
08:00 +25°C° 0.1 mm 0 mps 758 mmHg 90%
09:00 +26°C° 0.1 mm 0 mps 758 mmHg 87%
10:00 +26°C° 0.1 mm 0 mps 758 mmHg 84%
11:00 +28°C° 0.6 mm 0 mps 757 mmHg 80%
12:00 +31°C° 0.6 mm 1 mps 757 mmHg 75%
13:00 +32°C° 0.6 mm 1 mps 757 mmHg 70%
14:00 +32°C° 0.7 mm 1 mps 757 mmHg 70%
15:00 +32°C° 0.7 mm 1 mps 756 mmHg 71%
16:00 +32°C° 0.7 mm 1 mps 756 mmHg 71%
17:00 +30°C° 2.1 mm 1 mps 756 mmHg 77%
18:00 +29°C° 2.1 mm 1 mps 756 mmHg 83%
19:00 +28°C° 2.1 mm 1 mps 756 mmHg 89%
20:00 +27°C° 1.4 mm 1 mps 756 mmHg 90%
21:00 +27°C° 1.4 mm 1 mps 757 mmHg 92%
22:00 +26°C° 1.4 mm 1 mps 757 mmHg 93%
23:00 +26°C° 0.1 mm 1 mps 757 mmHg 94%

15 August, Saturday

Time Temperature Precipitation Wind Pressure Humidity
00:00 +26°C° 0.1 mm 1 mps 756 mmHg 94%
01:00 +26°C° 0.1 mm 1 mps 756 mmHg 95%
02:00 +26°C° 0.1 mm 1 mps 756 mmHg 95%
03:00 +26°C° 0.1 mm 1 mps 756 mmHg 95%
04:00 +25°C° 0.1 mm 1 mps 756 mmHg 96%
05:00 +25°C° 0.4 mm 1 mps 756 mmHg 96%
06:00 +25°C° 0.4 mm 1 mps 756 mmHg 95%
07:00 +25°C° 0.4 mm 1 mps 757 mmHg 95%
08:00 +26°C° 0.1 mm 2 mps 757 mmHg 93%
09:00 +27°C° 0.1 mm 2 mps 757 mmHg 91%
10:00 +27°C° 0.1 mm 2 mps 757 mmHg 88%
11:00 +28°C° 0.7 mm 2 mps 757 mmHg 83%
12:00 +30°C° 0.7 mm 2 mps 756 mmHg 79%
13:00 +31°C° 0.7 mm 3 mps 756 mmHg 74%
14:00 +30°C° 1 mm 3 mps 756 mmHg 76%
15:00 +30°C° 1 mm 3 mps 756 mmHg 78%
16:00 +29°C° 1 mm 3 mps 756 mmHg 80%
17:00 +28°C° 0.3 mm 3 mps 756 mmHg 82%
18:00 +27°C° 0.3 mm 3 mps 756 mmHg 85%
19:00 +26°C° 0.3 mm 3 mps 756 mmHg 88%
20:00 +26°C° 0.7 mm 3 mps 756 mmHg 90%
21:00 +25°C° 0.7 mm 3 mps 757 mmHg 92%
22:00 +25°C° 0.7 mm 3 mps 757 mmHg 93%
23:00 +25°C° 0.2 mm 3 mps 757 mmHg 94%

16 August, Sunday

Time Temperature Precipitation Wind Pressure Humidity
00:00 +25°C° 0.2 mm 3 mps 757 mmHg 94%
01:00 +24°C° 0.2 mm 2 mps 756 mmHg 94%
02:00 +24°C° 0.1 mm 3 mps 756 mmHg 93%
03:00 +24°C° 0.1 mm 3 mps 756 mmHg 93%
04:00 +24°C° 0.1 mm 3 mps 757 mmHg 92%
05:00 +22°C° 0.1 mm 3 mps 757 mmHg 93%
06:00 +22°C° 0.1 mm 4 mps 757 mmHg 93%
07:00 +22°C° 0.1 mm 4 mps 757 mmHg 93%
08:00 +23°C° 0.2 mm 4 mps 757 mmHg 92%
09:00 +23°C° 0.2 mm 4 mps 757 mmHg 91%
10:00 +25°C° 0.2 mm 4 mps 757 mmHg 90%
11:00 +23°C° 0.2 mm 4 mps 757 mmHg 91%
12:00 +23°C° 0.2 mm 4 mps 757 mmHg 91%
13:00 +23°C° 0.2 mm 4 mps 757 mmHg 91%
14:00 +23°C° 0.3 mm 4 mps 757 mmHg 91%
15:00 +23°C° 0.3 mm 4 mps 756 mmHg 92%
16:00 +23°C° 0.3 mm 4 mps 756 mmHg 92%
17:00 +23°C° 0.1 mm 4 mps 756 mmHg 92%
18:00 +23°C° 0.1 mm 4 mps 757 mmHg 93%
19:00 +23°C° 0.1 mm 4 mps 757 mmHg 93%
20:00 +22°C° 0 mm 4 mps 757 mmHg 92%
21:00 +22°C° 0 mm 4 mps 757 mmHg 92%
22:00 +22°C° 0 mm 4 mps 757 mmHg 91%
23:00 +22°C° 0 mm 4 mps 757 mmHg 91%
Show more